Point Salines, Grenada

12:11 AM AST on July 28, 2016 (GMT -0400)
Point Salines International

Weather History for TGPY - January, 2013

Change the Weather History Date:

Monday, January 28, 2013

  Actual Average Record
Temperature  
Mean Temperature 80 °F -  
Max Temperature 88 °F 83 °F 88 °F (2013)
Min Temperature 72 °F 73 °F 70 °F (2014)
Cooling Degree Days 15    
Growing Degree Days 30 (Base 50)    
Moisture  
Dew Point 72 °F    
Average Humidity 75    
Maximum Humidity 94    
Minimum Humidity 55    
Precipitation  
Precipitation 0.00 in - - ()
Sea Level Pressure  
Sea Level Pressure 30.02 in    
Wind  
Wind Speed 10 mph ()    
Max Wind Speed 20 mph    
Max Gust Speed -    
Visibility 7.9 miles    
Events      
Averages and records for this station are not official NWS values.
T = Trace of Precipitation, MM = Missing Value Source: Averaged Metar Reports

Daily Weather History Graph

Daily Weather History Graph

Search for Another Location

Airport or City:

Trip Planner

Search our weather history database for the weather conditions in past years. The results will help you decide how hot, cold, wet, or windy it might be!

Date:

Astronomy

Jan. 28, 2013 Rise Set
Actual Time 6:32 AM AST 6:07 PM AST
Civil Twilight 6:10 AM AST 6:30 PM AST
Nautical Twilight 5:44 AM AST 6:55 PM AST
Astronomical Twilight 5:19 AM AST 7:21 PM AST
Moon 7:29 PM AST 7:19 AM AST
Length of Visible Light 12h 19m
Length of Day
11h 35m
Full, 98% of the Moon is Illuminated
Jan 28
Full
Feb 3
Last Quarter
Feb 10
New
Feb 17
First Quarter
Feb 25
Full

Hourly Weather History & Observations

Time (AST) Temp. Heat Index Dew Point Humidity Pressure Visibility Wind Dir Wind Speed Gust Speed Precip Events Conditions
12:00 AM 78.8 °F - 73.4 °F 83% 30.04 in 6.2 mi East 9.2 mph - N/A   Mostly Cloudy
1:00 AM 77.0 °F - 75.2 °F 94% 30.01 in 6.2 mi East 6.9 mph - N/A   Mostly Cloudy
2:00 AM 76 °F - 70 °F 75% 30.01 in 11 mi East 8.1 mph - -   Widespread Dust
2:00 AM 75.2 °F - 69.8 °F 83% 30.01 in 6.2 mi East 8.1 mph - N/A   Partly Cloudy
3:00 AM 75.2 °F - 69.8 °F 83% 29.98 in 6.2 mi East 8.1 mph - N/A   Mostly Cloudy
4:00 AM 77.0 °F - 71.6 °F 83% 29.98 in 6.2 mi East 8.1 mph - N/A   Mostly Cloudy
5:00 AM 77 °F - 73 °F 85% 30.00 in 9 mi East 10.4 mph - -   Widespread Dust
5:00 AM 77.0 °F - 73.4 °F 89% 30.01 in 6.2 mi East 10.4 mph - N/A   Mostly Cloudy
6:00 AM 77.0 °F - 73.4 °F 89% 30.01 in 6.2 mi East 11.5 mph - N/A   Mostly Cloudy
7:00 AM 77.0 °F - 71.6 °F 83% 30.04 in 6.2 mi East 10.4 mph - N/A   Mostly Cloudy
8:00 AM 79 °F - 72 °F 75% 30.06 in 12 mi East 12.7 mph - -   Widespread Dust
8:00 AM 78.8 °F - 73.4 °F 83% 30.04 in 6.2 mi East 12.7 mph - N/A   Mostly Cloudy
9:00 AM 82.4 °F 88.2 °F 73.4 °F 74% 30.06 in 6.2 mi East 11.5 mph - N/A   Partly Cloudy
10:00 AM 84.2 °F 89.6 °F 71.6 °F 66% 30.06 in 6.2 mi East 17.3 mph - N/A   Partly Cloudy
11:00 AM 85 °F - 73 °F 59% 30.07 in 14 mi East 19.6 mph - -   Widespread Dust
11:00 AM 84.2 °F 90.9 °F 73.4 °F 70% 30.06 in 6.2 mi East 19.6 mph - N/A   Partly Cloudy
12:00 PM 86.0 °F 91.8 °F 71.6 °F 62% 30.04 in 6.2 mi East 17.3 mph - N/A   Partly Cloudy
1:00 PM 86.0 °F 91.8 °F 71.6 °F 62% 30.04 in 6.2 mi East 17.3 mph - N/A   Partly Cloudy
2:00 PM 86 °F - 72 °F 55% 30.01 in 17 mi SE 13.8 mph - -   Scattered Clouds
2:00 PM 86.0 °F 91.8 °F 71.6 °F 62% 30.01 in 6.2 mi SE 2.3 mph - N/A   Partly Cloudy
3:00 PM 84.2 °F 88.4 °F 69.8 °F 62% 29.98 in 6.2 mi ESE 17.3 mph - N/A   Scattered Clouds
4:00 PM 84.2 °F 90.9 °F 73.4 °F 70% 29.98 in 6.2 mi East 17.3 mph - N/A   Scattered Clouds
5:00 PM 82 °F - 72 °F 66% 30.00 in 17 mi ESE 15.0 mph - -   Partly Cloudy
5:00 PM 82.4 °F 87.2 °F 71.6 °F 70% 29.98 in 6.2 mi ESE 15.0 mph - N/A   Scattered Clouds
6:00 PM 80.6 °F 84.6 °F 71.6 °F 74% 30.01 in 6.2 mi East 9.2 mph - N/A   Scattered Clouds
7:00 PM 78.8 °F - 73.4 °F 83% 30.01 in 6.2 mi ENE 6.9 mph - N/A   Scattered Clouds
8:00 PM 78 °F - 73 °F 80% 30.04 in 12 mi ENE 15.0 mph - -   Widespread Dust
8:00 PM 78.8 °F - 73.4 °F 83% 30.04 in 6.2 mi ENE 15.0 mph - N/A   Scattered Clouds
9:00 PM 77.0 °F - 71.6 °F 83% 30.04 in 6.2 mi East 11.5 mph - N/A   Scattered Clouds
10:00 PM 77.0 °F - 71.6 °F 83% 30.04 in 6.2 mi ENE 5.8 mph - N/A   Scattered Clouds
11:00 PM 78 °F - 70 °F 71% 30.04 in 12 mi ENE 15.0 mph - -   Widespread Dust
11:00 PM 78.8 °F - 69.8 °F 74% 30.04 in 6.2 mi ENE 15.0 mph - N/A   Scattered Clouds